Location: George Washington National Forest Helicopter Landing Site
(38.6463°N, 79.0851°W)
Time: 01:20:34
(UTC-04:00)

Tiros 1 despin weight - Pass Details

Date: 28 August 2019
Orbit: 594 x 642 km, 48.2° (Epoch: 17 September)

Event Time Altitude Azimuth Distance (km) Brightness Sun altitude
Rises 20:17:28 0° 188° (S) 2,811 ? -5.5°
Reaches altitude 10° 20:20:42 10° 163° (SSE) 1,913 ? -6.1°
Maximum altitude 20:23:00 14° 131° (SE) 1,660 ? -6.5°
Drops below altitude 10° 20:25:20 10° 99° (E) 1,921 ? -7.0°
Enters shadow 20:26:09 - 90° (E) 2,112 ? -7.1°
Sets 20:28:34 0° 74° (ENE) 2,831 - -7.6°
